Location: City of Moscow
(46.7306°N, 116.9989°W)
Time: 04:44:32
(UTC+00:00)

COSMO-SKYMED 1 - Pass Details

Date: 11 December 2025
Orbit: 578 x 580 km, 97.9° (Epoch: 13 January)

Event Time Altitude Azimuth Distance (km) Brightness Sun altitude
Rises 12:34:26 0° 145° (SE) 2,789 6.5 -27.8°
Reaches altitude 10° 12:36:40 10° 137° (SE) 1,895 5.6 -27.4°
Maximum altitude 12:40:28 38° 69° (ENE) 905 3.8 -26.8°
Enters shadow 12:41:55 28° 27° (NNE) 1,109 4.0 -26.5°
